Flag for Germany Weather past 2 weeks in Emmerich am Rhein, North Rhine-Westphalia, Germany

Now
59 °F

Passing clouds.


Feels Like: 57 °F
Forecast: 53 / 65 °F
Wind: 13 mph from Southwest

Location: Niederrhein

Current Time: Jul 28, 2015 at 8:12:28 AM

Latest Report: Jul 28, 2015 at 7:20 AM


Visibility: N/A

Pressure: 29.65 "Hg

Humidity: 77%

Dew point: 52 °F

Location of Emmerich am RheinLocation

Historic Weather in Emmerich am Rhein — Graph

°F

Emmerich am Rhein temperature yesterday

Maximum temperature yesterday: 70 °F (at 6:50 PM)
Minimum temperature yesterday: 57 °F (at 6:20 AM)
Average temperature yesterday: 64 °F

Past Weeks' High & Low Weather Summary

 TemperatureHumidityPressure
High88 °F (Jul 17, 3:20 PM)100% (Jul 13, 12:50 PM)30.12 "Hg (Jul 13, 12:50 PM)
Low48 °F (Jul 26, 4:50 AM)36% (Jul 18, 4:50 PM)29.47 "Hg (Jul 25, 6:20 AM)
Average67 °F73%29.91 "Hg
* Reported Jul 13 6:20 AM — Jul 28 6:50 AM, Emmerich am Rhein, Weather by CustomWeather, © 2015

Note: Actual official high and low records may vary slightly from our data, if they occured in-between our weather recording intervals... More about our weather records

Advertising

Emmerich am Rhein weather history for previous 24 hours

 ConditionsComfort  
Time TempWeatherWind HumidityBarometerVisibility
6:50 AM
Tue, Jul 28
59 °FClear.15 mph77%29.62 "Hg10 mi
6:20 AM59 °FPassing clouds.10 mph77%29.62 "HgN/A
5:50 AM57 °FPassing clouds.9 mph82%29.62 "HgN/A
5:20 AM57 °FClear.10 mph77%29.62 "Hg10 mi
4:50 AM57 °FPassing clouds.10 mph77%29.62 "HgN/A
11:50 PM
Mon, Jul 27
63 °FPassing clouds.17 mph64%29.62 "HgN/A
11:20 PM63 °FSunny.17 mph64%29.62 "Hg10 mi
10:50 PM64 °FPassing clouds.17 mph60%29.62 "HgN/A
10:20 PM64 °FSunny.22 mph64%29.62 "Hg10 mi
9:50 PM64 °FSunny.18 mph64%29.59 "Hg10 mi
9:20 PM66 °FSunny.18 mph64%29.59 "Hg10 mi
8:50 PM66 °FSunny.14 mph64%29.59 "Hg10 mi
8:20 PM68 °FSunny.18 mph60%29.59 "Hg10 mi
7:50 PM68 °FSunny.17 mph60%29.59 "Hg10 mi
7:20 PM68 °FScattered clouds.21 mph60%29.59 "HgN/A
6:50 PM70 °FScattered clouds.20 mph60%29.56 "HgN/A
6:20 PM68 °FPartly sunny.23 mph64%29.56 "HgN/A
5:50 PM68 °FPartly sunny.22 mph64%29.56 "HgN/A
5:20 PM68 °FPartly sunny.21 mph64%29.56 "HgN/A
4:50 PM68 °FScattered showers. Scattered clouds.22 mph69%29.56 "HgN/A
4:20 PM68 °FScattered showers. Partly sunny.17 mph78%29.56 "HgN/A
3:50 PM66 °FScattered showers. Cloudy.15 mph78%29.56 "HgN/A
3:20 PM66 °FLight rain. Partly sunny.21 mph78%29.56 "HgN/A
2:50 PM66 °FScattered showers. Partly sunny.16 mph78%29.56 "HgN/A
2:20 PM64 °FSprinkles. Partly sunny.20 mph83%29.53 "HgN/A
1:50 PM63 °FScattered showers. Partly sunny.15 mph94%29.53 "HgN/A
1:20 PM61 °FSprinkles. Partly sunny.18 mph94%29.53 "Hg4 mi
12:50 PM63 °FPartly sunny.15 mph88%29.53 "HgN/A
12:20 PM61 °FLight rain. Partly sunny.16 mph94%29.53 "HgN/A
11:50 AM61 °FLight rain. Partly sunny.14 mph94%29.53 "HgN/A
11:20 AM63 °FSprinkles. Partly sunny.13 mph83%29.53 "HgN/A
10:50 AM63 °FSprinkles. Partly sunny.20 mph83%29.53 "HgN/A
10:20 AM63 °FPartly sunny.16 mph83%29.50 "HgN/A
9:50 AM63 °FPartly sunny.15 mph83%29.50 "HgN/A
9:20 AM61 °FPartly sunny.12 mph88%29.50 "HgN/A
8:50 AM61 °FPartly sunny.13 mph88%29.50 "HgN/A
8:20 AM61 °FPartly sunny.12 mph88%29.50 "HgN/A
Weather by CustomWeather, © 2015

See weather overviewHow to use our weather pages